Location: Coche
(10.4506°N, 66.9257°W)
Time: 03:08:24
(UTC+00:00)

YAOGAN 1 - Pass Details

Date: 12 July 2022
Orbit: 617 x 619 km, 97.9° (Epoch: 14 August)

Event Time Altitude Azimuth Distance (km) Brightness Sun altitude
Rises 00:37:40 0° 205° (SSW) 2,884 5.9 -23.8°
Reaches altitude 10° 00:40:56 10° 232° (SW) 1,978 5.4 -24.4°
Maximum altitude 00:43:00 13° 261° (W) 1,768 5.5 -24.9°
Drops below altitude 10° 00:45:04 10° 290° (WNW) 1,978 6.1 -25.3°
Sets 00:48:20 0° 317° (NW) 2,883 7.2 -26.0°
